Chester, CT

7:40 PM EDT on May 28, 2017 (GMT -0400)
Chester

Weather History for KSNC - March, 2013

Change the Weather History Date:

Tuesday, March 26, 2013

  Actual Average (KHVN) Record (KHVN)
Temperature  
Mean Temperature 42 °F -  
Max Temperature 48 °F 48 °F 69 °F (1986)
Min Temperature 35 °F 34 °F 25 °F (1972)
Degree Days  
Heating Degree Days 24    
Moisture  
Dew Point 25 °F    
Average Humidity 55    
Maximum Humidity 81    
Minimum Humidity 34    
Precipitation  
Precipitation 0.00 in - - ()
Sea Level Pressure  
Sea Level Pressure 29.70 in    
Wind  
Wind Speed 8 mph (NNW)    
Max Wind Speed 14 mph    
Max Gust Speed 21 mph    
Visibility 10 miles    
Events      
Averages and records for this station are not official NWS values.
T = Trace of Precipitation, MM = Missing Value Source: NWS Daily Summary

Daily Weather History Graph

Daily Weather History Graph

Search for Another Location

Airport or City:

Trip Planner

Search our weather history database for the weather conditions in past years. The results will help you decide how hot, cold, wet, or windy it might be!

Date:

Astronomy

Mar. 26, 2013 Rise Set
Actual Time 6:42 AM EDT 7:08 PM EDT
Civil Twilight 6:15 AM EDT 7:36 PM EDT
Nautical Twilight 5:42 AM EDT 8:09 PM EDT
Astronomical Twilight 5:09 AM EDT 8:42 PM EDT
Moon 6:42 PM EDT (3/26) 5:58 AM EDT (3/26)
Length of Visible Light 13h 21m
Length of Day
12h 26m
Waxing Gibbous, 99% of the Moon is Illuminated
Mar 26
Waxing Gibbous
Mar 27
Full
Apr 3
Last Quarter
Apr 10
New
Apr 18
First Quarter

Hourly Weather History & Observations

Time (EDT) Temp. Windchill Dew Point Humidity Pressure Visibility Wind Dir Wind Speed Gust Speed Precip Events Conditions
12:15 AM 37.4 °F 30.8 °F 28.4 °F 70% 29.54 in 10.0 mi North 9.2 mph - N/A   Overcast
12:35 AM 37.4 °F 31.4 °F 28.4 °F 70% 29.55 in 10.0 mi North 8.1 mph - N/A   Mostly Cloudy
12:55 AM 37.4 °F 31.4 °F 26.6 °F 65% 29.55 in 10.0 mi North 8.1 mph - N/A   Mostly Cloudy
1:15 AM 37.4 °F 29.8 °F 26.6 °F 65% 29.55 in 10.0 mi North 11.5 mph - N/A   Mostly Cloudy
1:35 AM 37.4 °F 29.3 °F 26.6 °F 65% 29.55 in 10.0 mi North 12.7 mph 17.3 mph N/A   Mostly Cloudy
1:55 AM 37.4 °F 30.3 °F 26.6 °F 65% 29.56 in 10.0 mi North 10.4 mph 16.1 mph N/A   Scattered Clouds
2:15 AM 37.4 °F 30.3 °F 26.6 °F 65% 29.57 in 10.0 mi North 10.4 mph - N/A   Clear
2:35 AM 35.6 °F 29.2 °F 26.6 °F 70% 29.57 in 10.0 mi North 8.1 mph - N/A   Scattered Clouds
2:55 AM 37.4 °F 30.8 °F 28.4 °F 70% 29.57 in 10.0 mi North 9.2 mph - N/A   Mostly Cloudy
3:15 AM 35.6 °F 29.9 °F 28.4 °F 75% 29.57 in 10.0 mi North 6.9 mph - N/A   Mostly Cloudy
3:35 AM 35.6 °F 29.9 °F 28.4 °F 75% 29.58 in 10.0 mi NNW 6.9 mph - N/A   Overcast
3:55 AM 35.6 °F 29.9 °F 28.4 °F 75% 29.59 in 10.0 mi NNW 6.9 mph - N/A   Overcast
4:15 AM 35.6 °F 31.7 °F 30.2 °F 81% 29.59 in 10.0 mi NNW 4.6 mph - N/A   Overcast
4:35 AM 35.6 °F 30.7 °F 30.2 °F 81% 29.60 in 10.0 mi NNW 5.8 mph - N/A   Overcast
4:55 AM 35.6 °F 30.7 °F 30.2 °F 81% 29.61 in 10.0 mi NW 5.8 mph - N/A   Overcast
5:15 AM 35.6 °F 30.7 °F 30.2 °F 81% 29.62 in 10.0 mi NNW 5.8 mph - N/A   Overcast
5:35 AM 37.4 °F 32.8 °F 28.4 °F 70% 29.63 in 10.0 mi NNW 5.8 mph - N/A   Overcast
5:55 AM 37.4 °F 32.1 °F 28.4 °F 70% 29.64 in 10.0 mi NW 6.9 mph - N/A   Overcast
6:15 AM 37.4 °F 32.8 °F 28.4 °F 70% 29.65 in 10.0 mi NNW 5.8 mph - N/A   Overcast
6:35 AM 37.4 °F 34.9 °F 28.4 °F 70% 29.66 in 10.0 mi NW 3.5 mph - N/A   Overcast
6:55 AM 37.4 °F 33.8 °F 28.4 °F 70% 29.66 in 10.0 mi NW 4.6 mph - N/A   Overcast
7:35 AM 37.4 °F 34.9 °F 28.4 °F 70% 29.67 in 10.0 mi WNW 3.5 mph - N/A   Scattered Clouds
7:55 AM 37.4 °F 33.8 °F 28.4 °F 70% 29.68 in 10.0 mi WNW 4.6 mph - N/A   Scattered Clouds
8:15 AM 37.4 °F 34.9 °F 28.4 °F 70% 29.68 in 10.0 mi NW 3.5 mph - N/A   Partly Cloudy
8:35 AM 39.2 °F 35.9 °F 28.4 °F 65% 29.69 in 10.0 mi WNW 4.6 mph - N/A   Scattered Clouds
8:55 AM 39.2 °F 33.6 °F 28.4 °F 65% 29.69 in 10.0 mi NW 8.1 mph - N/A   Scattered Clouds
9:15 AM 39.2 °F 33.6 °F 28.4 °F 65% 29.70 in 10.0 mi NW 8.1 mph - N/A   Scattered Clouds
9:35 AM 41.0 °F 37.1 °F 28.4 °F 61% 29.70 in 10.0 mi NNW 5.8 mph - N/A   Partly Cloudy
9:55 AM 41.0 °F 35.8 °F 28.4 °F 61% 29.70 in 10.0 mi NNW 8.1 mph - N/A   Partly Cloudy
10:15 AM 42.8 °F 36.6 °F 28.4 °F 57% 29.70 in 10.0 mi NNW 11.5 mph 16.1 mph N/A   Scattered Clouds
10:35 AM 42.8 °F 35.8 °F 28.4 °F 57% 29.71 in 10.0 mi North 13.8 mph - N/A   Mostly Cloudy
10:55 AM 42.8 °F 35.8 °F 26.6 °F 53% 29.71 in 10.0 mi NW 13.8 mph 20.7 mph N/A   Overcast
11:15 AM 42.8 °F 38.0 °F 28.4 °F 57% 29.71 in 10.0 mi North 8.1 mph - N/A   Mostly Cloudy
11:35 AM 42.8 °F 37.0 °F 28.4 °F 57% 29.71 in 10.0 mi NNW 10.4 mph - N/A   Overcast
11:55 AM 44.6 °F 40.2 °F 28.4 °F 53% 29.71 in 10.0 mi North 8.1 mph - N/A   Mostly Cloudy
12:15 PM 44.6 °F 38.4 °F 28.4 °F 53% 29.70 in 10.0 mi North 12.7 mph 19.6 mph N/A   Mostly Cloudy
12:35 PM 46.4 °F 41.5 °F 28.4 °F 50% 29.70 in 10.0 mi NNW 10.4 mph 17.3 mph N/A   Mostly Cloudy
12:55 PM 44.6 °F 40.2 °F 26.6 °F 49% 29.70 in 10.0 mi NW 8.1 mph 18.4 mph N/A   Mostly Cloudy
1:15 PM 46.4 °F 41.9 °F 24.8 °F 43% 29.70 in 10.0 mi NNW 9.2 mph 17.3 mph N/A   Mostly Cloudy
1:35 PM 46.4 °F 40.4 °F 23.0 °F 40% 29.70 in 10.0 mi NW 13.8 mph 20.7 mph N/A   Scattered Clouds
1:55 PM 46.4 °F 41.1 °F 21.2 °F 37% 29.70 in 10.0 mi NNW 11.5 mph 18.4 mph N/A   Partly Cloudy
2:15 PM 48.2 °F - 21.2 °F 34% 29.70 in 10.0 mi North 8.1 mph 16.1 mph N/A   Mostly Cloudy
2:35 PM 48.2 °F - 21.2 °F 34% 29.70 in 10.0 mi NW 13.8 mph 20.7 mph N/A   Mostly Cloudy
2:55 PM 48.2 °F - 21.2 °F 34% 29.70 in 10.0 mi NNW 10.4 mph - N/A   Mostly Cloudy
3:15 PM 46.4 °F 41.9 °F 21.2 °F 37% 29.71 in 10.0 mi North 9.2 mph - N/A   Mostly Cloudy
3:35 PM 46.4 °F 40.4 °F 21.2 °F 37% 29.71 in 10.0 mi North 13.8 mph 18.4 mph N/A   Mostly Cloudy
3:55 PM 46.4 °F 41.1 °F 21.2 °F 37% 29.72 in 10.0 mi NW 11.5 mph 16.1 mph N/A   Mostly Cloudy
4:15 PM 46.4 °F 41.9 °F 23.0 °F 40% 29.72 in 10.0 mi North 9.2 mph 16.1 mph N/A   Mostly Cloudy
4:35 PM 46.4 °F 41.9 °F 23.0 °F 40% 29.73 in 10.0 mi North 9.2 mph - N/A   Mostly Cloudy
4:55 PM 46.4 °F 41.9 °F 21.2 °F 37% 29.73 in 10.0 mi North 9.2 mph - N/A   Mostly Cloudy
5:15 PM 46.4 °F 42.4 °F 21.2 °F 37% 29.74 in 10.0 mi North 8.1 mph - N/A   Mostly Cloudy
5:35 PM 46.4 °F 42.4 °F 21.2 °F 37% 29.74 in 10.0 mi NNE 8.1 mph - N/A   Scattered Clouds
5:55 PM 44.6 °F 41.4 °F 21.2 °F 39% 29.75 in 10.0 mi North 5.8 mph - N/A   Scattered Clouds
6:15 PM 44.6 °F 41.4 °F 21.2 °F 39% 29.76 in 10.0 mi North 5.8 mph - N/A   Mostly Cloudy
6:35 PM 44.6 °F 41.4 °F 21.2 °F 39% 29.77 in 10.0 mi North 5.8 mph - N/A   Scattered Clouds
6:55 PM 42.8 °F 39.3 °F 21.2 °F 42% 29.77 in 10.0 mi North 5.8 mph - N/A   Clear
7:15 PM 41.0 °F - 21.2 °F 45% 29.78 in 10.0 mi Calm Calm - N/A   Clear
7:35 PM 39.2 °F - 21.2 °F 49% 29.79 in 10.0 mi Calm Calm - N/A   Clear
7:55 PM 39.2 °F 37.0 °F 21.2 °F 49% 29.79 in 10.0 mi NW 3.5 mph - N/A   Clear
8:15 PM 37.4 °F 34.9 °F 21.2 °F 52% 29.80 in 10.0 mi NW 3.5 mph - N/A   Clear
8:35 PM 39.2 °F 35.9 °F 19.4 °F 45% 29.80 in 10.0 mi NW 4.6 mph - N/A   Clear
8:55 PM 37.4 °F 33.8 °F 19.4 °F 48% 29.81 in 10.0 mi NW 4.6 mph - N/A   Clear
9:15 PM 39.2 °F 35.9 °F 17.6 °F 42% 29.81 in 10.0 mi NW 4.6 mph - N/A   Clear
9:35 PM 39.2 °F 37.0 °F 17.6 °F 42% 29.81 in 10.0 mi WNW 3.5 mph - N/A   Clear
9:55 PM 37.4 °F 32.8 °F 17.6 °F 45% 29.82 in 10.0 mi NW 5.8 mph - N/A   Clear
10:15 PM 37.4 °F 32.8 °F 17.6 °F 45% 29.82 in 10.0 mi NW 5.8 mph - N/A   Clear
10:35 PM 37.4 °F 34.9 °F 17.6 °F 45% 29.82 in 10.0 mi WNW 3.5 mph - N/A   Clear
10:55 PM 37.4 °F 34.9 °F 17.6 °F 45% 29.82 in 10.0 mi WNW 3.5 mph - N/A   Clear
11:15 PM 37.4 °F 33.8 °F 17.6 °F 45% 29.82 in 10.0 mi WNW 4.6 mph - N/A   Clear
11:35 PM 37.4 °F 34.9 °F 17.6 °F 45% 29.82 in 10.0 mi WNW 3.5 mph - N/A   Clear
11:55 PM 35.6 °F 31.7 °F 19.4 °F 52% 29.82 in 10.0 mi WNW 4.6 mph - N/A   Clear